FW5955 Weather Reports


Display with metric or nautical units.
time (UTC)temp
F
wind
direction
speed
MPH
gust
MPH
rain 1hr
in
rain 24hr
in
rain mn
in
humidity
%
barometer
mb
20260504043039 37 259 5.0 20.0 0.02 0.72 0.05 94 991.1
20260504041533 37 347 6.0 16.0 0.03 0.72 0.05 94 990.8
20260504040033 36 226 6.0 17.0 0.03 0.72 0.04 94 990.5
20260504034538 36 304 5.0 20.0 0.03 0.71 0.03 94 989.9
20260504033036 36 302 5.0 19.0 0.03 0.70 0.02 94 989.5
20260504031523 36 254 7.0 19.0 0.02 0.69 0.02 94 989.1
20260504030018 36 278 5.0 15.0 0.01 0.68 0.00 94 988.6
20260504024521 36 294 4.0 18.0 0.01 0.68 0.68 94 988.1
20260504023013 36 251 4.0 14.0 0.01 0.67 0.67 94 987.7
20260504021513 38 352 5.0 11.0 0.01 0.67 0.67 93 987.1
20260504020015 38 218 3.0 12.0 0.02 0.67 0.67 94 986.4
20260504014515 38 338 3.0 13.0 0.02 0.67 0.67 94 985.7
20260504013011 38 264 5.0 13.0 0.01 0.66 0.66 94 984.7
20260504011512 37 63 3.0 17.0 0.01 0.65 0.65 94 983.7
20260504010010 37 119 4.0 18.0 0.01 0.65 0.65 94 982.9
20260504004511 37 319 5.0 17.0 0.01 0.65 0.65 94 983.0
20260504003008 38 203 5.0 15.0 0.02 0.65 0.65 94 982.3
20260504001505 39 320 3.0 15.0 0.02 0.65 0.65 95 981.4
20260504000004 40 182 3.0 14.0 0.02 0.65 0.65 95 980.0
20260503234505 40 326 4.0 15.0 0.04 0.65 0.65 95 979.5
20260503233005 40 144 3.0 14.0 0.06 0.64 0.64 95 979.0
20260503231502 40 134 3.0 9.0 0.10 0.63 0.63 95 979.1
20260503230002 41 333 2.0 11.0 0.13 0.62 0.62 95 978.9
20260503224600 41 141 3.0 12.0 0.13 0.61 0.61 95 979.2
20260503223057 41 326 3.0 16.0 0.12 0.56 0.56 95 980.0
20260503221554 41 12 7.0 15.0 0.08 0.53 0.53 95 980.7
20260503220107 41 92 6.0 24.0 0.05 0.50 0.50 95 980.8
20260503214550 40 113 10.0 18.0 0.02 0.47 0.47 95 981.2
20260503213049 40 359 11.0 25.0 0.04 0.46 0.46 95 981.6
20260503211600 39 71 12.0 25.0 0.03 0.45 0.45 94 982.5
20260503210042 39 348 11.0 23.0 0.05 0.45 0.45 94 983.5
20260503204541 39 95 11.0 22.0 0.06 0.45 0.45 94 984.3
20260503203037 39 44 11.0 28.0 0.05 0.42 0.42 94 984.8
20260503201534 39 88 10.0 23.0 0.06 0.42 0.42 94 985.9
20260503200034 39 77 10.0 24.0 0.08 0.40 0.40 94 986.9
20260503194531 39 54 9.0 22.0 0.09 0.39 0.39 94 987.5
20260503193026 39 70 10.0 25.0 0.07 0.37 0.37 94 988.7
20260503191525 39 116 12.0 29.0 0.06 0.35 0.35 94 989.5
20260503190024 39 118 9.0 24.0 0.07 0.32 0.32 94 990.7
20260503184521 39 13 12.0 23.0 0.12 0.30 0.30 94 991.8
20260503183023 39 83 12.0 26.0 0.15 0.30 0.30 94 992.8
20260503181519 39 73 9.0 25.0 0.16 0.28 0.28 94 993.6
20260503180004 39 47 11.0 24.0 0.13 0.25 0.25 94 994.3
20260503174600 39 51 10.0 23.0 0.08 0.18 0.18 94 995.4
20260503173059 40 51 10.0 24.0 0.05 0.15 0.15 94 996.1
20260503171551 40 32 11.0 21.0 0.03 0.13 0.13 94 997.1
20260503120109 41 134 3.0 7.0 0.00 0.00 0.00 89 1008.7
20260503110151 42 61 1.0 5.0 0.00 0.01 0.00 88 1010.0
20260503081536 40 126 0.0 0.0 0.00 0.01 0.00 87 1012.0
20260503071528 42 105 0.0 0.0 0.00 0.01 0.00 84 1012.7
20260503054518 43 345 0.0 1.0 0.00 0.01 0.00 79 1013.1
20260503053010 44 42 0.0 0.0 0.00 0.01 0.00 77 1013.3
20260503051508 45 41 0.0 1.0 0.00 0.01 0.00 75 1013.4
20260503050007 45 305 0.0 2.0 0.00 0.01 0.00 74 1013.6
20260503044505 45 258 0.0 2.0 0.00 0.01 0.00 74 1013.9